Theta_e
296 296 296 296 295 295 294 293 292 291 291 290 289 289 289 289 289 288 288 287 287 285 285 285 285 287 288 289 290 290 290 291 292 292 292 294 296 299
295 294 294 295 294 293 292 292 291 290 289 289 288 288 287 287 287 287 286 285 284 284 285 285 286 286 287 287 287 289 289 289 289 291 291 292 293 294
293 293 293 293 293 292 291 290 290 289 288 287 287 286 285 285 284 284 283 284 284 284 284 285 285 286 286 287 288 289 288 289 289 289 290 291 291 293
293 293 293 292 291 291 290 289 288 287 286 285 284 283 283 283 283 282 282 283 283 284 284 285 285 285 285 286 287 288 289 289 289 290 289 290 290 291
292 292 292 291 290 289 288 287 287 286 284 283 282 282 282 282 282 282 282 282 282 282 283 283 284 284 285 286 287 289 288 288 288 288 289 290 290 290
291 291 290 289 288 288 287 286 285 284 283 282 281 281 281 282 282 282 282 282 282 282 282 284 285 284 285 286 288 288 287 287 287 289 289 289 290 290
291 290 289 288 287 287 285 285 284 284 283 281 281 281 281 281 282 282 282 281 281 280 280 282 283 283 284 284 288 288 288 288 289 288 288 288 289 290
287 287 288 287 286 285 285 284 284 282 280 280 281 281 281 281 281 281 280 279 280 280 280 281 281 282 282 283 286 287 288 287 287 287 287 287 288 290
287 286 286 286 285 285 284 284 282 280 279 279 280 281 281 280 280 280 280 281 281 281 281 281 281 281 282 283 284 285 287 287 287 286 286 286 288 291
287 286 285 285 284 284 284 283 281 280 279 279 280 280 279 279 280 281 281 282 282 282 282 282 282 282 282 284 284 284 284 285 285 285 285 287 290 292
286 285 285 284 284 283 283 283 281 280 280 279 279 279 279 280 281 281 281 282 282 282 282 282 282 282 283 285 285 284 285 285 285 285 286 291 293 293
286 285 284 283 283 283 282 281 280 280 280 280 279 279 280 280 280 280 281 281 282 283 283 283 283 283 283 284 285 285 285 285 285 286 287 291 292 292
286 284 283 283 283 282 281 280 280 280 280 279 279 278 279 279 280 280 281 282 282 283 284 284 283 283 283 283 284 285 287 286 287 288 289 290 291 291
286 285 284 283 282 281 281 281 281 280 280 280 279 279 278 279 279 280 280 281 282 283 285 284 283 283 283 283 284 284 287 287 288 288 289 290 291 291
286 285 284 283 282 282 281 281 281 281 280 280 279 279 278 278 279 279 280 282 283 284 285 285 284 283 283 283 283 284 284 287 288 288 289 289 290 291
286 285 285 284 283 282 282 281 281 281 280 280 279 279 278 278 278 279 280 281 282 284 285 285 284 284 283 282 283 283 283 284 285 288 288 289 290 290
285 285 285 284 283 282 282 282 281 281 281 280 279 279 278 278 278 279 280 280 280 281 283 284 285 285 283 282 283 282 283 284 285 287 287 289 290 290
284 284 284 283 283 282 283 282 281 281 281 280 280 278 278 277 277 278 279 279 279 281 282 283 284 284 285 285 284 283 283 285 285 285 287 288 288 288
285 284 283 283 283 282 282 282 281 281 281 281 279 278 278 277 277 277 277 278 279 280 280 281 282 282 284 285 285 285 284 285 286 285 285 287 287 288
285 284 283 283 283 282 282 282 282 281 281 280 279 278 277 277 277 277 277 277 278 279 279 280 280 281 282 283 284 285 285 284 286 286 285 285 286 287
285 285 284 283 283 283 283 283 283 282 282 281 279 278 278 277 277 277 277 277 277 278 278 278 280 281 282 284 285 285 285 285 286 286 286 285 285 285
286 285 285 284 283 283 283 284 283 283 282 281 280 279 278 277 277 277 277 277 277 277 277 279 281 282 283 284 284 285 285 285 285 285 286 286 286 285
287 286 286 285 284 284 283 283 283 283 283 282 280 279 278 278 277 277 277 277 277 276 276 279 281 282 282 283 284 284 283 284 284 284 285 285 285 285
Wind_Speed
16 21 23 23 22 26 15 14 15 20 29 29 29 23 20 22 25 28 35 41 45 45 40 37 30 27 27 27 28 27 25 25 26 25 26 27 28 31
21 22 20 20 17 13 9 13 15 16 25 28 29 29 29 32 35 39 42 43 37 30 25 24 26 28 29 30 30 27 25 24 25 26 26 25 29 29
21 16 13 13 13 10 11 16 20 24 28 32 36 37 38 39 39 38 30 27 25 27 27 26 26 27 29 28 26 23 24 23 25 23 26 27 28 27
16 14 14 9 12 14 18 22 25 26 32 36 36 35 35 33 28 27 25 24 27 26 24 23 24 26 28 29 26 28 27 28 29 27 25 27 28 28
16 17 17 15 17 19 22 25 28 32 29 26 31 30 26 24 24 22 23 27 27 27 28 23 22 25 26 27 28 25 18 20 22 25 24 26 27 28
15 16 14 16 18 20 24 29 28 28 25 28 29 25 25 24 23 26 29 29 32 30 26 18 19 24 24 23 22 17 18 20 21 21 20 25 27 27
14 14 16 18 21 24 25 25 27 26 28 30 27 27 28 28 27 28 29 34 40 37 31 24 23 22 21 23 17 21 19 19 18 18 21 21 25 28
16 17 19 23 23 21 22 24 24 27 29 24 25 26 27 22 23 30 36 36 34 27 26 28 22 21 22 22 16 8 8 9 13 18 22 21 23 27
18 17 18 21 20 21 22 25 23 24 21 21 21 24 28 28 30 33 24 26 28 28 26 26 21 25 23 20 22 17 15 14 17 21 21 19 21 21
18 18 18 18 18 21 23 23 24 22 19 15 20 27 29 24 18 19 23 28 28 25 21 24 22 23 21 20 18 17 16 19 20 22 23 19 19 18
19 18 16 17 19 21 23 25 25 20 17 16 16 16 14 12 13 17 21 21 27 27 24 22 21 23 20 13 10 11 17 19 19 21 18 12 16 17
19 17 16 18 19 20 23 24 21 17 17 16 19 16 10 12 13 14 17 21 25 31 28 21 24 19 21 9 13 15 19 19 14 14 12 10 16 14
18 15 18 18 18 20 21 17 14 15 18 18 23 19 15 15 15 14 13 18 25 26 28 22 21 18 16 20 20 21 6 7 7 9 10 8 6 17
17 15 16 17 14 17 13 11 13 15 18 20 22 23 22 17 16 16 16 16 19 23 19 14 18 16 16 16 16 23 11 2 3 8 8 6 11 9
17 16 17 13 16 13 12 13 13 16 18 19 22 23 21 16 17 18 15 15 15 16 22 11 12 13 16 15 14 14 18 6 5 5 7 4 8 10
18 18 19 18 19 15 13 14 14 15 17 19 21 24 17 17 17 13 15 17 19 17 15 8 10 13 15 14 13 14 9 11 12 5 9 2 9 16
20 21 23 22 21 17 14 15 13 14 18 21 22 22 18 18 16 12 13 16 17 17 15 16 14 7 9 12 16 14 9 8 7 6 5 6 10 11
23 24 24 24 22 17 14 15 13 14 18 21 23 18 16 16 16 12 12 13 14 13 13 15 13 10 13 7 8 6 5 5 2 6 2 3 3 4
26 25 25 24 22 18 15 15 15 17 19 22 23 16 13 13 13 13 13 12 12 11 11 11 10 12 11 11 8 5 7 3 3 4 5 2 4 5
27 26 25 23 19 18 15 16 16 18 20 22 16 12 11 14 12 11 13 13 12 12 12 10 9 8 9 9 12 8 6 6 5 5 2 5 9 6
26 25 23 20 18 16 17 18 19 19 20 21 14 14 13 15 12 9 11 12 11 12 14 11 9 6 5 4 6 5 1 3 8 5 3 5 7 8
25 23 21 20 19 20 19 19 21 21 23 22 17 15 16 14 11 8 9 12 13 13 12 7 5 6 7 6 4 3 4 5 6 2 1 9 5 5
23 22 21 20 19 20 22 24 23 22 21 21 16 15 16 11 9 7 7 10 13 11 8 6 5 11 10 5 8 8 6 2 1 2 5 5 4 2
Wind_Direction
302 301 298 291 284 276 265 278 282 296 298 305 310 311 304 294 290 288 289 292 296 301 297 299 299 296 294 292 285 283 269 273 279 284 287 275 271 268
304 307 295 287 290 270 269 278 285 294 294 295 296 298 293 290 290 291 295 300 299 299 302 303 302 300 295 293 289 276 274 280 284 281 283 283 275 270
300 296 302 296 288 293 286 281 290 293 292 298 298 298 298 297 299 303 304 303 308 307 304 299 302 302 297 300 289 276 270 273 279 282 282 283 282 272
305 291 285 283 286 277 288 298 302 301 303 304 303 304 304 307 308 309 309 304 305 306 304 304 299 298 300 299 293 278 270 275 269 275 284 282 282 279
296 291 292 289 291 297 301 302 302 303 306 308 313 313 314 318 316 315 315 308 308 305 306 302 300 304 305 299 293 275 253 263 269 275 282 281 281 279
291 290 292 294 296 294 299 302 304 310 313 317 318 318 319 321 319 314 310 310 310 309 310 301 303 302 305 301 288 241 254 266 272 278 289 282 276 282
275 278 285 291 292 299 299 300 307 311 314 317 312 315 317 322 317 315 310 312 309 308 305 297 301 304 308 320 300 254 261 255 261 285 294 294 280 282
286 283 287 291 295 291 296 306 310 311 308 304 307 315 314 316 310 308 312 313 318 330 321 294 303 309 307 312 319 341 286 327 301 302 303 297 289 284
299 296 299 295 296 292 297 300 302 307 303 298 297 299 300 303 306 311 311 312 312 321 319 315 310 304 307 298 292 299 306 295 300 303 311 301 288 281
297 300 297 295 296 297 303 309 315 314 311 297 284 294 299 304 309 309 311 312 312 318 321 313 320 311 306 301 279 266 283 289 295 302 303 297 276 268
300 300 294 291 293 299 305 309 315 319 317 316 317 312 306 309 311 316 320 330 322 320 324 312 321 321 313 338 311 287 285 281 291 296 299 268 254 249
309 300 291 289 290 298 304 311 314 322 331 334 339 332 320 320 317 319 319 315 322 316 321 299 308 318 324 340 328 303 288 283 287 295 289 250 236 229
315 305 295 295 300 308 310 311 321 331 341 334 343 339 325 320 315 311 314 325 321 321 326 309 294 299 304 312 323 339 328 264 281 311 313 226 169 209
306 307 301 300 298 307 305 314 323 329 331 335 335 336 337 329 323 321 318 319 320 331 337 305 278 288 300 306 321 331 27 44 300 330 317 235 197 171
296 295 302 302 312 301 312 316 316 319 327 328 326 332 329 329 324 322 321 324 324 337 337 291 294 294 285 284 298 324 344 1 13 340 344 285 195 200
292 284 287 298 309 298 308 310 303 312 318 315 322 325 327 332 338 339 341 342 342 348 26 6 308 291 282 269 277 295 314 327 342 336 331 59 175 162
285 278 278 292 296 286 294 306 295 303 307 316 318 320 331 336 346 348 351 350 347 349 353 354 3 326 310 268 268 282 289 292 318 329 322 45 98 128
279 277 277 279 283 274 280 299 292 297 301 310 315 318 325 335 343 342 345 351 353 356 2 14 24 14 7 352 312 291 254 287 281 303 80 117 90 107
273 274 274 273 278 261 268 285 288 291 302 308 313 315 313 329 341 343 345 344 352 5 4 360 1 5 14 9 19 264 231 268 264 229 190 177 169 129
272 274 274 273 270 256 257 269 283 296 299 307 313 319 319 328 329 337 352 341 342 346 342 335 338 338 341 333 339 358 235 235 264 213 232 223 207 184
271 277 273 271 261 255 258 263 270 285 298 306 312 311 314 315 326 317 336 348 333 330 336 340 338 323 297 295 351 309 304 192 147 179 267 178 176 190
269 275 274 269 264 259 261 259 265 281 295 300 295 305 305 301 312 307 325 334 346 330 341 359 346 28 55 58 332 134 126 179 212 244 109 173 179 189
261 267 271 270 267 258 259 266 269 277 285 293 292 297 298 297 289 287 316 317 328 344 350 356 14 69 64 44 84 94 86 99 154 185 190 194 208 210